STARLINK AS

Last updated on June 19, 2020, 12:02 a.m. UTC

1 45770U 20038AS  20170.75001157  .00114883  11274-4  14285-3 0  9999
2 45770  52.9999 271.8094 0111395  69.6847 146.4287 15.96121279  2130

Satellite is not in orbit.